ROMMA est une association bénévole à but non lucratif. Votre soutien est indispensable : ADHERER à ROMMA ou FAIRE un DON

Lélex - (01, Ain)

Jura Gessien (910 m)   Longitude: 5° 56' E   Latitude: 46° 18' N Station partenaire n°103
 

Détail journalier du     <<     >>

Température Precipitation Humidité Vent Dir Rafale Dir. rafale Ensol.
Heure (°C) (mm) (%) (km/h) (km/h) (min)
01:00 4.40776E13ENE0
02:00 4.10744ESE13E0
03:00 4.20703E11ESE0
04:00 3.80732ESE8E0
05:00 2.80793ESE10SSE0
06:00 2.20812ENE8E0
07:00 1.70822ENE10NNE0
08:00 2.80771ESE8E0
09:00 3.80743ESE11E0
10:00 6.30664E15E35
11:00 7.10667NNE24NE60
12:00 9.40597E23E60
13:00 9.40586E21ENE25
14:00 9.20598SSE24S5
15:00 9.50605SSO19OSO0
16:00 9.80587ENE24SSO5
17:00 9.80575O21N10
18:00 9.80567N24NE40
19:00 8.40588NNE19N45
20:00 6.80637NE23N0
21:00 5.10683E15NNE0
22:00 3.20751ESE6ESE0
23:00 2.107806ESE0
minuit 0.908103ESE0

Graphique du 12-04-2019

 

Serveur OMMA